Погода Стенде

Погода Стенде : погода сейчас, прогноз погоды и архив. Всё, что Вы хотите узнать о погоде Стенде!

Поиск расширенной информации на нашем сайте:

Другие новости

Новости СМИ2

Главная страница сайта

Новости сайта

03.07.2017

Напоминаем, что на нашем специализированном сайте Метеоцентр.Азия вы можете получить высокодетализированные автоматические прогнозы погоды по пунктам России, СНГ и мира в авиационном формате (включающие направление и скорость ветра, видимость, явления погоды, количество и форму облачности, нижнюю и верхнюю границу облачности).


Погода Стенде - сегодня

Время (UTC), дата Ветер
(°,м/с) 
Видим.   Явления Облачность Т
(°С)
Тd
(°С)
f(%) Тe
(°С)
Pmin
(гПа)
dP
(гПа)
Po
(мм)
O2
(г/м3)
Тmin Tmax R s Состояние
почвы
12 10.12.17 180 (Ю) 4-6  н/о    н/о 
+0.9 -0.3 92 -1  996.8  -1  740  297           
15 10.12.17 190 (Ю) 5-8  н/о    н/о 
+0.8 -0.9 88 -2  997  0.2  740  297           
18 10.12.17 180 (Ю) 5-7  н/о    н/о 
-0.3 -2.1 88 -3  996.7  -0.3  740  299           
21 10.12.17 150 (ЮВ) 3-5  н/о    н/о 
-1.7 -3.1 90 -4  997  0.2  740  300           
00 11.12.17 130 (ЮВ) 4-5  н/о    н/о 
-2.6 -3.6 93 -5  996.4  -0.6  740  301           
03 11.12.17 130 (ЮВ) 5-7  н/о    н/о 
-2.2 -3.6 90 -6  995.5  -1  739  301           
06 11.12.17 140 (ЮВ) 6-10  н/о    н/о 
-2.3 -3.9 89 -6  995.3  -0.2  739  301           
09 11.12.17 130 (ЮВ) 4-6  н/о    н/о 
-1.6 -3.4 88 -4  996.1  0.9  740  300           
12 11.12.17 130 (ЮВ) 7-11  н/о    н/о 
-1.1 -3.2 86 -5  995  -1.1  739  299           
15 11.12.17 140 (ЮВ) 5-9  н/о    н/о 
-0.9 -2.3 90 -4  996.5  1.5  740  299           
18 11.12.17 140 (ЮВ) 5-7  н/о    н/о 
-0.5 -1.4 94 -4  996.9  0.3  740  299           
21 11.12.17 140 (ЮВ) 4-6  н/о    н/о 
+0.2 -0.3 96 -2  996.9  740  298           
00 12.12.17 140 (ЮВ) 6-8  н/о    н/о 
+0.6 -0.2 94 -3  995.2  -1.6  739  297           
03 12.12.17 130 (ЮВ) 8-11  н/о    н/о 
+0.9 -0.1 93 -3  991.7  -3.4  736  296           
06 12.12.17 160 (Ю) 7-10  н/о    н/о 
+1.4 +0.8 96 -2  990.2  -1.4  735  295           
12 12.12.17 190 (Ю) 6-9  н/о    н/о 
+4.3 +3.6 95 +2  987.8  -1.1  734  290           
15 12.12.17 210 (ЮЗ) 6-10  н/о    н/о 
+6.2 +5.3 94 +4  988.7  0.9  734  288           
18 12.12.17 220 (ЮЗ) 6-10  н/о    н/о 
+5.5 +4.2 91 +3  989.9  1.2  735  290           
21 12.12.17 210 (ЮЗ) 7-13  н/о    н/о 
+4.1 +2.8 91 +1  990.8  0.8  736  292           
00 13.12.17 260 (З) 5-9  н/о    н/о 
+1 +0.6 97 -2  994.4  3.3  738  296           
03 13.12.17 270 (З) 4-6  н/о    н/о 
+0.6 -0.2 94 -2  1000.6  6.2  743  299           
06 13.12.17 220 (ЮЗ) 3-5  н/о    н/о 
-0.1 -0.8 95 -2  1003.8  3.1  745  301           
09 13.12.17 200 (Ю) 4-6  н/о    н/о 
+0.1 -1.6 88 -2  1005  1.2  746  301           
12 13.12.17 210 (ЮЗ) 4-6  н/о    н/о 
+1.2 +0.4 94 -1  1004.9  -0.1  746  299           
15 13.12.17 210 (ЮЗ) 5-7  н/о    н/о 
+1.9 +0.9 93 -1  1005.4  0.6  747  299           
Время (UTC), дата Ветер
(°,м/с) 
Видим.   Явления Облачность Т
(°С)
Тd
(°С)
f(%) Тe
(°С)
Pmin
(гПа)
dP
(гПа)
Po
(мм)
O2
(г/м3)
Тmin Tmax R s Состояние
почвы

Для получения пояснительной информации подведите курсор к названию столбца.

ПОГОДА Стенде - архив

Всё, что Вы хотите узнать о погоде Стенде - удобно и подробно!

Выберите нужную дату (начиная с 1 января 2015* года) и нажмите кнопку "Найти".
Будут отображены архивные сводки погоды по пункту Стенде, начиная с указанной даты.


Отображать данные в формате CSV (для использования в таблицах Excel)


Внимание! Наш архив погоды предназначен исключительно для личного некоммерческого использования в познавательных целях. Если Вам необходимы официальные справки о состоянии погоды (для производственных, юридических, коммерческих и т.п. целей), обращайтесь в органы Росгидромета.

*Примечание: данная дата относится к архиву по метеостанциям СССР (Россия, СНГ, Балтия).
Архив по метеостанциям Зарубежной Европы и Азии (кроме Китая) хранится 10 дней, по другим регионам земного шара (Китай, Африка, Америка, Австралия, Океания) - 1 день.

Стенде - район местоположения метеостанции


Название, широта, долгота, высота метеостанции:
Стенде 57.2°ш. 22.6°д. 79 м над ур. моря [Латвия]

Дополнительная информация

В oтличие oт бoльшинства пoгoдных сайтoв мы публикуем пoдрoбную метеoинфoрмацию в детальнoм прoфессиoнальнoм фoрмате.

Характеристики температуры и влажнoсти вoздуха измеряются на высoте 2 м в тени вдали oт зданий и деревьев.
Скoрoсть ветра измеряется на высoте 10 м (на урoвне рoста челoвека скoрoсть ветра ниже в 1.5-2 раза). Если метеoстанция нахoдится в гoрoде или в лесу, тo скoрoсть ветра занижена на 2-4 м/с пo сравнению с oткрытым местoм. Скoрoсть ветра над акватoриями крупных рек и oзёр, а также на вершинах хoлмoв на 2-5 м/с выше, чем в oбычных услoвиях.
Атмoсфернoе давление в разных тoчках местнoсти мoжет значительнo oтличаться oт давления на метеoстанции, в зависимoсти oт услoвий рельефа (при пoдъёме на 10 м давление пoнижается примернo на 1 мм рт.ст.).